Time,TemperatureF,DewpointF,PressureIn,WindDirection,WindDirectionDegrees,WindSpeedMPH,WindSpeedGustMPH,Humidity,HourlyPrecipIn,Conditions,Clouds,dailyrainin,SoftwareType,DateUTC
2013-04-17 00:05:00,59.7,23.8,29.88,WNW,285,6.0,6.0,25,0.00,,,0.00,Wunderground v.1.15,2013-04-17 07:05:00,
2013-04-17 00:10:00,59.5,23.6,29.88,WNW,294,6.0,8.0,25,0.00,,,0.00,Wunderground v.1.15,2013-04-17 07:10:00,
2013-04-17 00:20:00,59.5,24.5,29.88,NW,313,8.0,8.0,26,0.00,,,0.00,Wunderground v.1.15,2013-04-17 07:20:00,
2013-04-17 00:25:00,59.5,24.5,29.88,NW,320,8.0,10.0,26,0.00,,,0.00,Wunderground v.1.15,2013-04-17 07:25:00,
2013-04-17 00:35:00,59.4,25.4,29.89,WNW,296,7.0,9.0,27,0.00,,,0.00,Wunderground v.1.15,2013-04-17 07:35:00,
2013-04-17 00:40:00,59.2,25.2,29.89,NNW,329,7.0,9.0,27,0.00,,,0.00,Wunderground v.1.15,2013-04-17 07:40:00,
2013-04-17 01:00:00,59.0,25.9,29.89,NNW,330,8.0,11.0,28,0.00,,,0.00,Wunderground v.1.15,2013-04-17 08:00:00,
2013-04-17 01:16:00,58.9,25.8,29.89,NW,312,8.0,11.0,28,0.00,,,0.00,Wunderground v.1.15,2013-04-17 08:16:00,
2013-04-17 01:20:00,58.9,25.8,29.89,NW,315,8.0,11.0,28,0.00,,,0.00,Wunderground v.1.15,2013-04-17 08:20:00,
2013-04-17 01:25:00,58.9,25.8,29.89,WNW,301,8.0,11.0,28,0.00,,,0.00,Wunderground v.1.15,2013-04-17 08:25:00,
2013-04-17 01:35:00,58.7,25.6,29.89,NW,304,7.0,7.0,28,0.00,,,0.00,Wunderground v.1.15,2013-04-17 08:35:00,
2013-04-17 01:50:00,58.6,26.4,29.89,NW,316,8.0,8.0,29,0.00,,,0.00,Wunderground v.1.15,2013-04-17 08:50:00,
2013-04-17 01:55:00,58.6,26.4,29.89,NW,322,7.0,8.0,29,0.00,,,0.00,Wunderground v.1.15,2013-04-17 08:55:00,
2013-04-17 02:05:00,58.6,26.4,29.89,WNW,302,8.0,8.0,29,0.00,,,0.00,Wunderground v.1.15,2013-04-17 09:05:00,
2013-04-17 02:10:00,58.4,26.2,29.89,WNW,296,7.0,8.0,29,0.00,,,0.00,Wunderground v.1.15,2013-04-17 09:10:00,
2013-04-17 02:20:00,58.1,26.8,29.89,WNW,295,6.0,8.0,30,0.00,,,0.00,Wunderground v.1.15,2013-04-17 09:20:00,
2013-04-17 02:25:00,57.8,26.5,29.89,NW,312,6.0,8.0,30,0.00,,,0.00,Wunderground v.1.15,2013-04-17 09:25:00,
2013-04-17 02:30:00,57.7,26.4,29.89,NW,322,6.0,6.0,30,0.00,,,0.00,Wunderground v.1.15,2013-04-17 09:30:00,
2013-04-17 02:35:00,57.7,26.4,29.89,NW,322,6.0,6.0,30,0.00,,,0.00,Wunderground v.1.15,2013-04-17 09:35:00,
2013-04-17 02:45:00,57.5,26.3,29.90,WNW,301,6.0,7.0,30,0.00,,,0.00,Wunderground v.1.15,2013-04-17 09:45:00,
2013-04-17 02:50:00,57.4,26.2,29.90,NW,306,6.0,7.0,30,0.00,,,0.00,Wunderground v.1.15,2013-04-17 09:50:00,
2013-04-17 03:00:00,57.4,27.0,29.90,WNW,298,6.0,7.0,31,0.00,,,0.00,Wunderground v.1.15,2013-04-17 10:00:00,
2013-04-17 03:05:00,57.2,26.8,29.90,NW,320,6.0,7.0,31,0.00,,,0.00,Wunderground v.1.15,2013-04-17 10:05:00,
2013-04-17 03:10:00,56.9,27.3,29.90,NW,316,6.0,8.0,32,0.00,,,0.00,Wunderground v.1.15,2013-04-17 10:10:00,
2013-04-17 03:20:00,56.8,27.2,29.90,WNW,298,7.0,7.0,32,0.00,,,0.00,Wunderground v.1.15,2013-04-17 10:20:00,
2013-04-17 03:25:00,56.6,27.0,29.90,NNW,333,7.0,7.0,32,0.00,,,0.00,Wunderground v.1.15,2013-04-17 10:25:00,
2013-04-17 03:35:00,56.5,27.0,29.90,NW,318,6.0,6.0,32,0.00,,,0.00,Wunderground v.1.15,2013-04-17 10:35:00,
2013-04-17 03:40:00,56.5,27.0,29.90,NW,318,5.0,6.0,32,0.00,,,0.00,Wunderground v.1.15,2013-04-17 10:40:00,
2013-04-17 03:50:00,56.1,26.6,29.90,NW,309,4.0,4.0,32,0.00,,,0.00,Wunderground v.1.15,2013-04-17 10:50:00,
2013-04-17 03:55:00,56.0,26.5,29.90,WNW,298,4.0,4.0,32,0.00,,,0.00,Wunderground v.1.15,2013-04-17 10:55:00,
2013-04-17 04:05:00,55.7,25.5,29.90,WNW,292,3.0,6.0,31,0.00,,,0.00,Wunderground v.1.15,2013-04-17 11:05:00,
2013-04-17 04:10:00,55.5,25.3,29.90,NW,309,4.0,6.0,31,0.00,,,0.00,Wunderground v.1.15,2013-04-17 11:10:00,
2013-04-17 04:20:00,55.5,24.5,29.90,NW,322,5.0,7.0,30,0.00,,,0.00,Wunderground v.1.15,2013-04-17 11:20:00,
2013-04-17 04:25:00,55.7,23.9,29.90,NW,316,6.0,7.0,29,0.00,,,0.00,Wunderground v.1.15,2013-04-17 11:25:00,
2013-04-17 04:35:00,56.1,24.2,29.91,NW,322,7.0,7.0,29,0.00,,,0.00,Wunderground v.1.15,2013-04-17 11:35:00,
2013-04-17 04:50:00,56.1,23.4,29.92,NNW,332,7.0,7.0,28,0.00,,,0.00,Wunderground v.1.15,2013-04-17 11:50:00,
2013-04-17 04:55:00,56.1,23.4,29.92,NW,318,7.0,11.0,28,0.00,,,0.00,Wunderground v.1.15,2013-04-17 11:55:00,
2013-04-17 05:05:00,56.1,23.4,29.92,NW,323,8.0,8.0,28,0.00,,,0.00,Wunderground v.1.15,2013-04-17 12:05:00,
2013-04-17 05:10:00,56.1,24.2,29.92,NNW,342,8.0,12.0,29,0.00,,,0.00,Wunderground v.1.15,2013-04-17 12:10:00,
2013-04-17 05:15:00,56.1,24.2,29.92,WNW,301,7.0,8.0,29,0.00,,,0.00,Wunderground v.1.15,2013-04-17 12:15:00,
2013-04-17 05:25:00,55.8,24.0,29.92,NW,325,7.0,12.0,29,0.00,,,0.00,Wunderground v.1.15,2013-04-17 12:25:00,
2013-04-17 05:40:00,55.5,23.7,29.92,NW,316,7.0,7.0,29,0.00,,,0.00,Wunderground v.1.15,2013-04-17 12:40:00,
2013-04-17 05:45:00,55.4,23.6,29.92,NNW,336,7.0,7.0,29,0.00,,,0.00,Wunderground v.1.15,2013-04-17 12:45:00,
2013-04-17 05:55:00,55.1,24.2,29.93,NNW,339,6.0,7.0,30,0.00,,,0.00,Wunderground v.1.15,2013-04-17 12:55:00,
2013-04-17 06:05:00,55.1,23.4,29.93,WNW,302,7.0,7.0,29,0.00,,,0.00,Wunderground v.1.15,2013-04-17 13:05:00,
2013-04-17 06:10:00,55.0,23.3,29.93,NW,323,7.0,7.0,29,0.00,,,0.00,Wunderground v.1.15,2013-04-17 13:10:00,
2013-04-17 06:20:00,54.8,23.9,29.93,NW,316,6.0,6.0,30,0.00,,,0.00,Wunderground v.1.15,2013-04-17 13:20:00,
2013-04-17 06:25:00,54.7,23.8,29.93,NW,313,5.0,6.0,30,0.00,,,0.00,Wunderground v.1.15,2013-04-17 13:25:00,
2013-04-17 06:35:00,54.5,23.7,29.94,NNW,328,5.0,5.0,30,0.00,,,0.00,Wunderground v.1.15,2013-04-17 13:35:00,
2013-04-17 06:40:00,54.5,23.7,29.94,NW,319,6.0,6.0,30,0.00,,,0.00,Wunderground v.1.15,2013-04-17 13:40:00,
2013-04-17 06:50:00,54.7,23.0,29.94,NW,325,6.0,6.0,29,0.00,,,0.00,Wunderground v.1.15,2013-04-17 13:50:00,
2013-04-17 06:55:00,54.7,23.8,29.94,NNW,343,5.0,6.0,30,0.00,,,0.00,Wunderground v.1.15,2013-04-17 13:55:00,
2013-04-17 07:05:00,55.2,23.5,29.95,NW,325,5.0,7.0,29,0.00,,,0.00,Wunderground v.1.15,2013-04-17 14:05:00,
2013-04-17 07:15:00,55.8,24.0,29.96,NW,316,4.0,4.0,29,0.00,,,0.00,Wunderground v.1.15,2013-04-17 14:15:00,
2013-04-17 07:20:00,56.1,24.2,29.96,NW,318,4.0,6.0,29,0.00,,,0.00,Wunderground v.1.15,2013-04-17 14:20:00,
2013-04-17 07:25:00,56.5,23.7,29.96,NW,316,4.0,6.0,28,0.00,,,0.00,Wunderground v.1.15,2013-04-17 14:25:00,
2013-04-17 07:35:00,57.1,24.3,29.96,NW,325,6.0,8.0,28,0.00,,,0.00,Wunderground v.1.15,2013-04-17 14:35:00,
2013-04-17 07:45:00,57.7,24.8,29.97,NW,313,6.0,6.0,28,0.00,,,0.00,Wunderground v.1.15,2013-04-17 14:45:00,
2013-04-17 07:50:00,57.8,24.9,29.97,NW,326,6.0,6.0,28,0.00,,,0.00,Wunderground v.1.15,2013-04-17 14:50:00,
2013-04-17 08:00:00,58.6,24.7,29.97,NNW,337,7.0,7.0,27,0.00,,,0.00,Wunderground v.1.15,2013-04-17 15:00:00,
2013-04-17 08:05:00,58.7,24.8,29.97,NW,304,7.0,7.0,27,0.00,,,0.00,Wunderground v.1.15,2013-04-17 15:05:00,
2013-04-17 08:15:00,59.0,25.0,29.98,NW,325,6.0,6.0,27,0.00,,,0.00,Wunderground v.1.15,2013-04-17 15:15:00,
2013-04-17 08:20:00,59.7,25.6,29.98,NW,323,7.0,8.0,27,0.00,,,0.00,Wunderground v.1.15,2013-04-17 15:20:00,
2013-04-17 08:30:00,60.6,25.5,29.98,NNW,343,7.0,7.0,26,0.00,,,0.00,Wunderground v.1.15,2013-04-17 15:30:00,
2013-04-17 08:40:00,61.4,26.2,29.98,NW,306,6.0,6.0,26,0.00,,,0.00,Wunderground v.1.15,2013-04-17 15:40:00,
2013-04-17 08:45:00,61.6,25.4,29.98,NW,322,7.0,9.0,25,0.00,,,0.00,Wunderground v.1.15,2013-04-17 15:45:00,
2013-04-17 08:55:00,62.4,26.1,29.98,NW,323,5.0,5.0,25,0.00,,,0.00,Wunderground v.1.15,2013-04-17 15:55:00,
2013-04-17 09:00:00,62.5,26.2,29.98,NNW,340,5.0,5.0,25,0.00,,,0.00,Wunderground v.1.15,2013-04-17 16:00:00,
2013-04-17 09:10:00,63.3,24.8,29.98,WNW,296,7.0,9.0,23,0.00,,,0.00,Wunderground v.1.15,2013-04-17 16:10:00,
2013-04-17 09:15:00,63.7,26.2,29.98,NW,316,6.0,9.0,24,0.00,,,0.00,Wunderground v.1.15,2013-04-17 16:15:00,
2013-04-17 09:25:00,64.5,24.8,29.98,NW,312,7.0,7.0,22,0.00,,,0.00,Wunderground v.1.15,2013-04-17 16:25:00,
2013-04-17 09:30:00,64.8,25.0,29.98,NNW,336,7.0,7.0,22,0.00,,,0.00,Wunderground v.1.15,2013-04-17 16:30:00,
2013-04-17 09:40:00,64.9,26.2,29.98,NW,318,8.0,10.0,23,0.00,,,0.00,Wunderground v.1.15,2013-04-17 16:40:00,
2013-04-17 09:45:00,65.1,25.3,29.98,WNW,299,8.0,10.0,22,0.00,,,0.00,Wunderground v.1.15,2013-04-17 16:45:00,
2013-04-17 09:55:00,65.6,25.7,29.98,NW,311,8.0,8.0,22,0.00,,,0.00,Wunderground v.1.15,2013-04-17 16:55:00,
2013-04-17 10:00:00,66.1,25.0,29.98,North,357,6.0,6.0,21,0.00,,,0.00,Wunderground v.1.15,2013-04-17 17:00:00,
2013-04-17 10:10:00,67.1,25.8,29.98,WNW,299,5.0,8.0,21,0.00,,,0.00,Wunderground v.1.15,2013-04-17 17:10:00,
2013-04-17 10:15:00,67.1,24.6,29.98,NNW,328,4.0,11.0,20,0.00,,,0.00,Wunderground v.1.15,2013-04-17 17:15:00,
2013-04-17 10:25:00,68.1,24.2,29.98,North,0,5.0,5.0,19,0.00,,,0.00,Wunderground v.1.15,2013-04-17 17:25:00,
2013-04-17 10:30:00,68.4,24.5,29.98,NNE,20,5.0,5.0,19,0.00,,,0.00,Wunderground v.1.15,2013-04-17 17:30:00,
2013-04-17 10:40:00,69.3,23.9,29.98,WNW,292,3.0,3.0,18,0.00,,,0.00,Wunderground v.1.15,2013-04-17 17:40:00,
2013-04-17 10:45:00,69.6,25.5,29.98,NNW,347,4.0,4.0,19,0.00,,,0.00,Wunderground v.1.15,2013-04-17 17:45:00,
2013-04-17 10:55:00,70.1,24.6,29.98,NE,35,4.0,5.0,18,0.00,,,0.00,Wunderground v.1.15,2013-04-17 17:55:00,
2013-04-17 11:05:00,70.5,22.1,29.97,NNW,336,3.0,6.0,16,0.00,,,0.00,Wunderground v.1.15,2013-04-17 18:05:00,
2013-04-17 11:10:00,70.6,23.6,29.97,North,353,3.0,6.0,17,0.00,,,0.00,Wunderground v.1.15,2013-04-17 18:10:00,
2013-04-17 11:20:00,71.0,22.5,29.97,North,357,5.0,5.0,16,0.00,,,0.00,Wunderground v.1.15,2013-04-17 18:20:00,
2013-04-17 11:30:00,71.5,22.9,29.97,NW,320,3.0,3.0,16,0.00,,,0.00,Wunderground v.1.15,2013-04-17 18:30:00,
2013-04-17 11:35:00,71.0,21.0,29.97,NW,309,3.0,3.0,15,0.00,,,0.00,Wunderground v.1.15,2013-04-17 18:35:00,
2013-04-17 11:45:00,70.5,22.1,29.96,NE,55,2.0,2.0,16,0.00,,,0.00,Wunderground v.1.15,2013-04-17 18:45:00,
2013-04-17 11:50:00,70.3,21.9,29.96,West,263,2.0,7.0,16,0.00,,,0.00,Wunderground v.1.15,2013-04-17 18:50:00,
2013-04-17 12:05:00,71.5,22.9,29.95,North,0,4.0,5.0,16,0.00,,,0.00,Wunderground v.1.15,2013-04-17 19:05:00,
2013-04-17 12:15:00,73.4,21.3,29.95,North,3,3.0,3.0,14,0.00,,,0.00,Wunderground v.1.15,2013-04-17 19:15:00,
2013-04-17 12:20:00,72.9,20.9,29.95,NNE,20,2.0,3.0,14,0.00,,,0.00,Wunderground v.1.15,2013-04-17 19:20:00,
2013-04-17 12:30:00,73.6,23.1,29.95,NNW,328,3.0,5.0,15,0.00,,,0.00,Wunderground v.1.15,2013-04-17 19:30:00,
2013-04-17 12:35:00,73.9,24.8,29.95,North,8,3.0,5.0,16,0.00,,,0.00,Wunderground v.1.15,2013-04-17 19:35:00,
2013-04-17 12:45:00,73.1,22.7,29.94,ENE,59,4.0,4.0,15,0.00,,,0.00,Wunderground v.1.15,2013-04-17 19:45:00,
2013-04-17 12:50:00,72.5,22.2,29.94,ESE,116,3.0,4.0,15,0.00,,,0.00,Wunderground v.1.15,2013-04-17 19:50:00,
2013-04-17 13:00:00,73.1,22.7,29.94,SSW,206,2.0,3.0,15,0.00,,,0.00,Wunderground v.1.15,2013-04-17 20:00:00,
2013-04-17 13:10:00,73.4,25.9,29.94,SW,216,4.0,9.0,17,0.00,,,0.00,Wunderground v.1.15,2013-04-17 20:10:00,
2013-04-17 13:25:00,71.5,29.5,29.94,SW,216,9.0,11.0,21,0.00,,,0.00,Wunderground v.1.15,2013-04-17 20:25:00,
2013-04-17 13:40:00,71.3,30.5,29.94,SSW,195,8.0,8.0,22,0.00,,,0.00,Wunderground v.1.15,2013-04-17 20:40:00,
2013-04-17 13:50:00,72.2,27.6,29.93,West,274,5.0,5.0,19,0.00,,,0.00,Wunderground v.1.15,2013-04-17 20:50:00,
2013-04-17 13:55:00,72.4,26.5,29.93,West,277,7.0,12.0,18,0.00,,,0.00,Wunderground v.1.15,2013-04-17 20:55:00,
2013-04-17 14:05:00,72.4,27.8,29.93,WNW,299,8.0,8.0,19,0.00,,,0.00,Wunderground v.1.15,2013-04-17 21:05:00,
2013-04-17 14:10:00,72.2,27.6,29.93,West,263,8.0,10.0,19,0.00,,,0.00,Wunderground v.1.15,2013-04-17 21:10:00,
2013-04-17 14:20:00,71.5,28.3,29.94,WNW,292,9.0,9.0,20,0.00,,,0.00,Wunderground v.1.15,2013-04-17 21:20:00,
2013-04-17 14:25:00,70.8,28.9,29.94,West,267,10.0,10.0,21,0.00,,,0.00,Wunderground v.1.15,2013-04-17 21:25:00,
2013-04-17 14:35:00,70.0,28.2,29.94,WNW,289,13.0,13.0,21,0.00,,,0.00,Wunderground v.1.15,2013-04-17 21:35:00,
2013-04-17 14:40:00,69.8,28.1,29.94,NW,312,12.0,13.0,21,0.00,,,0.00,Wunderground v.1.15,2013-04-17 21:40:00,
2013-04-17 14:50:00,70.1,29.5,29.94,WNW,289,10.0,10.0,22,0.00,,,0.00,Wunderground v.1.15,2013-04-17 21:50:00,
2013-04-17 15:00:00,70.3,29.6,29.94,WNW,295,10.0,10.0,22,0.00,,,0.00,Wunderground v.1.15,2013-04-17 22:00:00,
2013-04-17 15:05:00,70.3,29.6,29.94,West,267,9.0,13.0,22,0.00,,,0.00,Wunderground v.1.15,2013-04-17 22:05:00,
2013-04-17 15:15:00,70.1,29.5,29.94,West,260,10.0,12.0,22,0.00,,,0.00,Wunderground v.1.15,2013-04-17 22:15:00,
2013-04-17 15:30:00,69.6,27.9,29.93,WNW,289,10.0,10.0,21,0.00,,,0.00,Wunderground v.1.15,2013-04-17 22:30:00,
2013-04-17 15:35:00,70.1,28.3,29.93,West,261,10.0,10.0,21,0.00,,,0.00,Wunderground v.1.15,2013-04-17 22:35:00,
2013-04-17 15:45:00,70.5,28.7,29.93,WNW,294,9.0,9.0,21,0.00,,,0.00,Wunderground v.1.15,2013-04-17 22:45:00,
2013-04-17 15:55:00,70.8,26.5,29.93,WNW,284,8.0,11.0,19,0.00,,,0.00,Wunderground v.1.15,2013-04-17 22:55:00,
2013-04-17 16:00:00,70.5,27.5,29.93,West,270,9.0,9.0,20,0.00,,,0.00,Wunderground v.1.15,2013-04-17 23:00:00,
2013-04-17 16:10:00,69.8,26.9,29.93,WNW,294,10.0,10.0,20,0.00,,,0.00,Wunderground v.1.15,2013-04-17 23:10:00,
2013-04-17 16:15:00,70.0,25.8,29.93,WNW,291,10.0,10.0,19,0.00,,,0.00,Wunderground v.1.15,2013-04-17 23:15:00,
2013-04-17 16:25:00,69.8,25.6,29.93,NW,313,11.0,11.0,19,0.00,,,0.00,Wunderground v.1.15,2013-04-17 23:25:00,
2013-04-17 16:35:00,69.8,25.6,29.92,NW,305,9.0,9.0,19,0.00,,,0.00,Wunderground v.1.15,2013-04-17 23:35:00,
2013-04-17 16:40:00,70.1,25.9,29.92,WNW,301,9.0,9.0,19,0.00,,,0.00,Wunderground v.1.15,2013-04-17 23:40:00,
2013-04-17 16:50:00,69.8,25.6,29.92,NW,323,10.0,10.0,19,0.00,,,0.00,Wunderground v.1.15,2013-04-17 23:50:00,
2013-04-17 17:00:00,69.4,24.0,29.92,NW,304,10.0,18.0,18,0.00,,,0.00,Wunderground v.1.15,2013-04-18 00:00:00,
2013-04-17 17:05:00,69.1,23.8,29.92,West,280,11.0,18.0,18,0.00,,,0.00,Wunderground v.1.15,2013-04-18 00:05:00,
2013-04-17 17:15:00,68.9,24.9,29.93,NW,309,10.0,10.0,19,0.00,,,0.00,Wunderground v.1.15,2013-04-18 00:15:00,
2013-04-17 17:25:00,68.6,25.9,29.93,West,270,9.0,9.0,20,0.00,,,0.00,Wunderground v.1.15,2013-04-18 00:25:00,
2013-04-17 17:30:00,68.4,25.7,29.93,WSW,257,9.0,9.0,20,0.00,,,0.00,Wunderground v.1.15,2013-04-18 00:30:00,
2013-04-17 17:40:00,68.1,26.7,29.93,WNW,295,9.0,9.0,21,0.00,,,0.00,Wunderground v.1.15,2013-04-18 00:40:00,
2013-04-17 17:50:00,67.8,27.5,29.93,NW,308,9.0,9.0,22,0.00,,,0.00,Wunderground v.1.15,2013-04-18 00:50:00,
2013-04-17 17:55:00,67.8,27.5,29.93,WNW,284,7.0,9.0,22,0.00,,,0.00,Wunderground v.1.15,2013-04-18 00:55:00,
2013-04-17 18:05:00,67.8,26.4,29.93,WSW,258,7.0,10.0,21,0.00,,,0.00,Wunderground v.1.15,2013-04-18 01:05:00,
2013-04-17 18:15:00,67.8,25.2,29.93,West,281,7.0,7.0,20,0.00,,,0.00,Wunderground v.1.15,2013-04-18 01:15:00,
2013-04-17 18:20:00,67.6,25.1,29.93,WNW,288,7.0,12.0,20,0.00,,,0.00,Wunderground v.1.15,2013-04-18 01:20:00,
2013-04-17 18:30:00,67.3,27.1,29.94,WNW,282,7.0,8.0,22,0.00,,,0.00,Wunderground v.1.15,2013-04-18 01:30:00,
2013-04-17 18:35:00,67.3,26.0,29.94,WNW,296,6.0,8.0,21,0.00,,,0.00,Wunderground v.1.15,2013-04-18 01:35:00,
2013-04-17 18:45:00,66.1,26.1,29.94,WNW,282,7.0,11.0,22,0.00,,,0.00,Wunderground v.1.15,2013-04-18 01:45:00,
2013-04-17 18:50:00,65.8,25.9,29.94,West,278,7.0,11.0,22,0.00,,,0.00,Wunderground v.1.15,2013-04-18 01:50:00,
2013-04-17 18:56:00,65.3,25.4,29.94,WSW,258,8.0,12.0,22,0.00,,,0.00,Wunderground v.1.15,2013-04-18 01:56:00,
2013-04-17 19:00:00,64.9,25.1,29.94,WNW,294,8.0,11.0,22,0.00,,,0.00,Wunderground v.1.15,2013-04-18 02:00:00,
2013-04-17 19:10:00,64.5,25.8,29.94,WNW,294,7.0,7.0,23,0.00,,,0.00,Wunderground v.1.15,2013-04-18 02:10:00,
2013-04-17 19:25:00,63.7,27.2,29.94,West,267,10.0,15.0,25,0.00,,,0.00,Wunderground v.1.15,2013-04-18 02:25:00,
2013-04-17 19:30:00,63.5,28.0,29.94,West,268,10.0,15.0,26,0.00,,,0.00,Wunderground v.1.15,2013-04-18 02:30:00,
2013-04-17 19:40:00,63.3,28.7,29.94,West,274,9.0,9.0,27,0.00,,,0.00,Wunderground v.1.15,2013-04-18 02:40:00,
2013-04-17 19:45:00,63.2,29.5,29.94,NW,309,7.0,9.0,28,0.00,,,0.00,Wunderground v.1.15,2013-04-18 02:45:00,
2013-04-17 19:55:00,62.8,30.0,29.94,SW,223,8.0,8.0,29,0.00,,,0.00,Wunderground v.1.15,2013-04-18 02:55:00,
2013-04-17 20:00:00,62.7,30.8,29.94,West,281,7.0,7.0,30,0.00,,,0.00,Wunderground v.1.15,2013-04-18 03:00:00,
2013-04-17 20:10:00,62.4,32.1,29.94,WSW,254,8.0,8.0,32,0.00,,,0.00,Wunderground v.1.15,2013-04-18 03:10:00,
2013-04-17 20:15:00,62.2,32.0,29.94,West,260,8.0,8.0,32,0.00,,,0.00,Wunderground v.1.15,2013-04-18 03:15:00,
2013-04-17 20:25:00,61.9,30.9,29.95,WNW,282,6.0,6.0,31,0.00,,,0.00,Wunderground v.1.15,2013-04-18 03:25:00,
2013-04-17 20:30:00,61.7,30.7,29.95,WSW,250,5.0,6.0,31,0.00,,,0.00,Wunderground v.1.15,2013-04-18 03:30:00,
2013-04-17 20:40:00,61.6,31.4,29.95,WSW,257,4.0,4.0,32,0.00,,,0.00,Wunderground v.1.15,2013-04-18 03:40:00,
2013-04-17 20:50:00,61.6,30.6,29.96,West,274,2.0,2.0,31,0.00,,,0.00,Wunderground v.1.15,2013-04-18 03:50:00,
2013-04-17 20:55:00,61.4,31.3,29.96,NNW,340,1.0,2.0,32,0.00,,,0.00,Wunderground v.1.15,2013-04-18 03:55:00,
2013-04-17 21:05:00,61.2,32.6,29.97,WNW,299,3.0,3.0,34,0.00,,,0.00,Wunderground v.1.15,2013-04-18 04:05:00,
2013-04-17 21:10:00,61.1,32.5,29.97,WNW,299,3.0,3.0,34,0.00,,,0.00,Wunderground v.1.15,2013-04-18 04:10:00,
2013-04-17 21:20:00,60.8,35.7,29.97,WNW,299,2.0,3.0,39,0.00,,,0.00,Wunderground v.1.15,2013-04-18 04:20:00,
2013-04-17 21:30:00,60.3,37.7,29.98,WNW,299,1.0,1.0,43,0.00,,,0.00,Wunderground v.1.15,2013-04-18 04:30:00,
2013-04-17 21:35:00,60.0,38.0,29.98,WNW,299,1.0,2.0,44,0.00,,,0.00,Wunderground v.1.15,2013-04-18 04:35:00,
2013-04-17 21:45:00,59.5,39.2,29.98,NW,304,3.0,7.0,47,0.00,,,0.00,Wunderground v.1.15,2013-04-18 04:45:00,
2013-04-17 21:50:00,59.2,39.5,29.98,NW,323,3.0,7.0,48,0.00,,,0.00,Wunderground v.1.15,2013-04-18 04:50:00,
2013-04-17 22:00:00,58.9,40.8,29.99,NNW,339,2.0,2.0,51,0.00,,,0.00,Wunderground v.1.15,2013-04-18 05:00:00,
2013-04-17 22:05:00,58.7,41.6,29.99,NW,311,3.0,5.0,53,0.00,,,0.00,Wunderground v.1.15,2013-04-18 05:05:00,
2013-04-17 22:15:00,58.3,41.7,29.99,NNW,335,2.0,2.0,54,0.00,,,0.00,Wunderground v.1.15,2013-04-18 05:15:00,
2013-04-17 22:30:00,57.7,42.1,29.99,NNW,336,1.0,3.0,56,0.00,,,0.00,Wunderground v.1.15,2013-04-18 05:30:00,
2013-04-17 22:41:00,57.2,42.1,29.99,NNW,340,1.0,1.0,57,0.00,,,0.00,Wunderground v.1.15,2013-04-18 05:41:00,
2013-04-17 22:45:00,57.1,42.0,29.99,NNW,340,1.0,1.0,57,0.00,,,0.00,Wunderground v.1.15,2013-04-18 05:45:00,
2013-04-17 22:50:00,56.8,42.2,29.99,NNW,342,0.0,1.0,58,0.00,,,0.00,Wunderground v.1.15,2013-04-18 05:50:00,
2013-04-17 22:55:00,56.5,41.9,29.99,NNW,340,1.0,1.0,58,0.00,,,0.00,Wunderground v.1.15,2013-04-18 05:55:00,
2013-04-17 23:00:00,56.1,42.0,30.00,NNW,340,0.0,0.0,59,0.00,,,0.00,Wunderground v.1.15,2013-04-18 06:00:00,
2013-04-17 23:05:00,55.8,41.7,30.00,NNW,340,0.0,1.0,59,0.00,,,0.00,Wunderground v.1.15,2013-04-18 06:05:00,
2013-04-17 23:11:00,55.5,42.3,30.00,NNW,340,0.0,0.0,61,0.00,,,0.00,Wunderground v.1.15,2013-04-18 06:11:00,
2013-04-17 23:15:00,55.2,42.0,30.00,NNW,340,0.0,0.0,61,0.00,,,0.00,Wunderground v.1.15,2013-04-18 06:15:00,
2013-04-17 23:25:00,54.7,41.9,30.00,NNW,340,0.0,0.0,62,0.00,,,0.00,Wunderground v.1.15,2013-04-18 06:25:00,
2013-04-17 23:30:00,54.4,42.1,30.00,NNW,340,0.0,0.0,63,0.00,,,0.00,Wunderground v.1.15,2013-04-18 06:30:00,
2013-04-17 23:40:00,53.6,41.7,30.00,NNW,340,0.0,0.0,64,0.00,,,0.00,Wunderground v.1.15,2013-04-18 06:40:00,
2013-04-17 23:45:00,53.5,41.6,30.00,NNW,340,0.0,0.0,64,0.00,,,0.00,Wunderground v.1.15,2013-04-18 06:45:00,
2013-04-17 23:55:00,53.0,41.9,30.00,NNW,340,0.0,0.0,66,0.00,,,0.00,Wunderground v.1.15,2013-04-18 06:55:00,